2023/02/01 00:00:00,94.6,-1.7
2023/02/01 00:10:00,94.6,-1.2
2023/02/01 00:20:00,94.5,-1.7
2023/02/01 00:30:00,94.4,-2.1
2023/02/01 00:40:00,94.4,-1.6
2023/02/01 00:50:00,94.3,-1.6
2023/02/01 01:00:00,94.3,-1.8
2023/02/01 01:10:00,94.2,-1.8
2023/02/01 01:20:00,94.0,-1.9
2023/02/01 01:30:00,94.0,-1.7
2023/02/01 01:40:00,93.8,-1.7
2023/02/01 01:50:00,93.6,-1.9
2023/02/01 02:00:00,93.6,-2.0
2023/02/01 02:10:00,93.7,-2.3
2023/02/01 02:20:00,93.7,-2.4
2023/02/01 02:30:00,93.7,-2.4
2023/02/01 02:40:00,93.8,-1.7
2023/02/01 02:50:00,93.9,-1.9
2023/02/01 03:00:00,94.0,-2.0
2023/02/01 03:10:00,94.0,-1.6
2023/02/01 03:20:00,93.9,-1.6
2023/02/01 03:30:00,93.7,-1.1
2023/02/01 03:40:00,93.6,-1.3
2023/02/01 03:50:00,93.6,-1.5
2023/02/01 04:00:00,93.7,-1.9
2023/02/01 04:10:00,93.8,-1.6
2023/02/01 04:20:00,94.0,-1.8
2023/02/01 04:30:00,94.2,-1.8
2023/02/01 04:40:00,94.5,-1.7
2023/02/01 04:50:00,94.4,-1.6
2023/02/01 05:00:00,94.4,-2.3
2023/02/01 05:10:00,94.2,-2.0
2023/02/01 05:20:00,94.2,-2.6
2023/02/01 05:30:00,93.6,-2.5
2023/02/01 05:40:00,93.3,-2.5
2023/02/01 05:50:00,93.7,-1.9
2023/02/01 06:00:00,94.0,-2.0
2023/02/01 06:10:00,94.2,-1.3
2023/02/01 06:20:00,94.2,-1.2
2023/02/01 06:30:00,94.2,-0.7
2023/02/01 06:40:00,94.2,-0.5
2023/02/01 06:50:00,94.2, 0.0
2023/02/01 07:00:00,93.9, 0.5
2023/02/01 07:10:00,93.0, 0.4
2023/02/01 07:20:00,92.4, 0.8
2023/02/01 07:30:00,92.2, 0.8
2023/02/01 07:40:00,92.2, 1.7
2023/02/01 07:50:00,92.1, 1.8
2023/02/01 08:00:00,92.1, 1.3
2023/02/01 08:10:00,92.0, 1.9
2023/02/01 08:20:00,91.8, 2.2
2023/02/01 08:30:00,91.9, 2.2
2023/02/01 08:40:00,91.9, 2.9
2023/02/01 08:50:00,91.8, 3.0
2023/02/01 09:00:00,91.7, 2.9
2023/02/01 09:10:00,91.7, 2.7
2023/02/01 09:20:00,91.6, 2.8
2023/02/01 09:30:00,91.5, 3.3
2023/02/01 09:40:00,91.5, 4.0
2023/02/01 09:50:00,91.2, 4.5
2023/02/01 10:00:00,91.2, 5.3
2023/02/01 10:10:00,91.2, 4.8
2023/02/01 10:20:00,90.8, 5.1
2023/02/01 10:30:00,91.0, 4.4
2023/02/01 10:40:00,91.1, 5.4
2023/02/01 10:50:00,91.1, 4.8
2023/02/01 11:00:00,91.3, 3.8
2023/02/01 11:10:00,90.5, 7.5
2023/02/01 11:20:00,90.1,11.2
2023/02/01 11:30:00,90.0,12.8
2023/02/01 11:40:00,90.6, 7.5
2023/02/01 11:50:00,91.1, 5.3
2023/02/01 12:00:00,91.1, 4.6
2023/02/01 12:10:00,91.1, 3.8
2023/02/01 12:20:00,90.9, 3.3
2023/02/01 12:30:00,90.7, 3.7
2023/02/01 12:40:00,90.1, 5.0
2023/02/01 12:50:00,89.8, 6.1
2023/02/01 13:00:00,89.9, 6.8
2023/02/01 13:10:00,89.2, 9.7
2023/02/01 13:20:00,88.9,11.2
2023/02/01 13:30:00,88.7,11.6
2023/02/01 13:40:00,88.8, 8.0
2023/02/01 13:50:00,88.8,11.0
2023/02/01 14:00:00,89.0, 5.3
2023/02/01 14:10:00,89.3, 3.8
2023/02/01 14:20:00,89.1, 4.5
2023/02/01 14:30:00,89.1, 3.0
2023/02/01 14:40:00,89.2, 3.1
2023/02/01 14:50:00,89.2, 2.6
2023/02/01 15:00:00,89.1, 2.3
2023/02/01 15:10:00,89.0, 1.6
2023/02/01 15:20:00,89.0, 1.5
2023/02/01 15:30:00,88.9, 1.9
2023/02/01 15:40:00,88.9, 1.7
2023/02/01 15:50:00,88.7, 1.9
2023/02/01 16:00:00,88.5, 1.6
2023/02/01 16:10:00,88.5, 1.9
2023/02/01 16:20:00,88.6, 1.7
2023/02/01 16:30:00,88.4, 1.3
2023/02/01 16:40:00,88.0, 1.1
2023/02/01 16:50:00,87.9, 0.9
2023/02/01 17:00:00,88.2, 1.1
2023/02/01 17:10:00,88.1, 1.2
2023/02/01 17:20:00,87.6, 1.0
2023/02/01 17:30:00,87.6, 0.8
2023/02/01 17:40:00,87.5, 0.8
2023/02/01 17:50:00,87.4, 0.7
2023/02/01 18:00:00,87.3, 1.0
2023/02/01 18:10:00,87.2, 0.6
2023/02/01 18:20:00,87.0, 0.8
2023/02/01 18:30:00,87.0, 0.9
2023/02/01 18:40:00,86.9, 0.9
2023/02/01 18:50:00,86.5, 0.7
2023/02/01 19:00:00,86.3, 0.7
2023/02/01 19:10:00,86.2, 0.6
2023/02/01 19:20:00,86.3, 0.7
2023/02/01 19:30:00,86.4, 0.9
2023/02/01 19:40:00,86.3, 1.3
2023/02/01 19:50:00,86.0, 0.7
2023/02/01 20:00:00,86.1, 0.5
2023/02/01 20:10:00,86.1, 0.4
2023/02/01 20:20:00,86.1, 0.5
2023/02/01 20:30:00,86.0, 0.5
2023/02/01 20:40:00,85.7, 0.5
2023/02/01 20:50:00,85.6, 0.6
2023/02/01 21:00:00,85.8, 0.6
2023/02/01 21:10:00,85.5, 0.5
2023/02/01 21:20:00,85.1, 0.7
2023/02/01 21:30:00,85.0, 1.1
2023/02/01 21:40:00,85.0, 0.3
2023/02/01 21:50:00,85.0, 0.5
2023/02/01 22:00:00,85.1, 0.5
2023/02/01 22:10:00,85.0, 0.3
2023/02/01 22:20:00,84.9, 0.5
2023/02/01 22:30:00,85.0, 0.5
2023/02/01 22:40:00,85.0, 0.5
2023/02/01 22:50:00,84.9, 0.5
2023/02/01 23:00:00,84.8, 0.5
2023/02/01 23:10:00,84.6, 0.4
2023/02/01 23:20:00,84.5, 0.2
2023/02/01 23:30:00,84.7, 0.3
2023/02/01 23:40:00,84.9, 0.2
2023/02/01 23:50:00,85.0, 0.1
